Location: Champs
(48.8539°N, 2.6040°E)
Time: 12:39:32
(UTC+00:00)

COSMO-SKYMED 1 - Pass Details

Date: 26 October 2021
Orbit: 621 x 623 km, 97.9° (Epoch: 07 December)

Event Time Altitude Azimuth Distance (km) Brightness Sun altitude
Rises 05:06:12 0° 172° (S) 2,892 6.2 -13.9°
Reaches altitude 10° 05:08:23 10° 175° (S) 1,991 5.3 -13.5°
Maximum altitude 05:12:42 67° 258° (WSW) 680 2.5 -12.8°
Drops below altitude 10° 05:17:03 10° 342° (NNW) 2,007 4.9 -12.1°
Sets 05:19:16 0° 345° (NNW) 2,918 5.8 -11.7°
